星链-30149 (STARLINK-30149 )

导读

STARLINK-30149是美国SpaceX公司星链星座的一员,于北京时间2023年8月7日发射入轨,属于星链网络扩容的卫星之一。星链计划旨在构建全球卫星互联网,该卫星延续了星链卫星的设计,为全球偏远地区、海上及空中提供低延迟宽带互联网接入服务,进一步完善了星链低轨卫星星座的全球覆盖能力。

Basic Information
目录编号:
57516
目录名称:
STARLINK-30149
国际标识:
2023-113X
轨道中心:
EARTH
卫星名称:
星链-30149
卫星全名:
星链-30149 (STARLINK-30149 )
卫星状态:
在轨 (已飞行1124 天)
发射日期:
2023-08-07 UTC
国别 :
美国 (US)
星等 :
--
Orbit Information
数据来源 国际轨道数据
星历时间: 2026-09-04T09:02:21+0800
11小时前
查看轨道信息
半长轴: 6861.224km
偏心率: 0.0001426
轨道倾角: 43.002°
近地点辐角 262.358°
升交点赤经 88.689°
平近点角 97.711°
近地点: 482.108km
远地点: 484.066km
周期: 94.268分钟
每日圈数: 15.275676
Detailed Information
固有亮度:
5
最大亮度:
0.3
卫星平台:
Starlink v2.0 mini
覆盖范围:
全球
运营商:
太空探索技术公司
运营商所在国:
美国
制造商(研发单位):
太空探索技术公司
制造商所在国:
美国
使用方式:
暂无
Satellite Introduction
星链(Starlink)计划是由太空探索技术公司(SpaceX)提出的一个巨型低轨卫星互联网星座项目,计划在2019年至2024年间在太空搭建由约1.2万颗卫星组成的“星链”网络,其中1584颗将部署在地球上空550千米处的近地轨道,并从2020年开始工作。该卫星仍在工作。
2D Orbit Map
3D Orbit Map
Orbit Altitude Analysis Chart
Orbit Inclination Analysis Chart
Orbit Comprehensive Analysis Chart
View Comprehensive Chart
Conjunction Data List
Event ID Objects TCA Miss Dist (km) Collision Risk Probability Collision Risk Index (CRI) Action
CDM_260906-001205-751606-733821
2026-09-06T
00:12:33+0000
0.302 km
远距离
4.261622E-4 高风险 0.88
CDM_260904-152305-670605-751621
2026-09-04T
15:23:15+0000
0.965 km
远距离
1.924056E-5 中风险 0.61
CDM_260905-215905-670605-751621
2026-09-05T
21:59:17+0000
1.329 km
极远距离
6.387109E-6 低风险 0.51
CDM_260905-233305-670605-751621
2026-09-05T
23:33:27+0000
1.332 km
极远距离
6.334204E-6 低风险 0.51
CDM_260904-165705-670605-751621
2026-09-04T
16:57:24+0000
1.405 km
极远距离
5.310127E-6 低风险 0.5
CDM_260906-010705-670605-751621
2026-09-06T
01:07:36+0000
1.422 km
极远距离
5.099742E-6 低风险 0.49
CDM_260905-202505-670605-751621
2026-09-05T
20:25:08+0000
1.453 km
极远距离
4.756398E-6 低风险 0.49
CDM_260906-024105-670605-751621
2026-09-06T
02:41:45+0000
1.552 km
极远距离
3.854927E-6 低风险 0.47
CDM_260906-182305-670605-751621
2026-09-06T
18:23:20+0000
1.621 km
极远距离
3.370339E-6 低风险 0.46
CDM_260906-014605-751606-733821
2026-09-06T
01:46:42+0000
1.756 km
极远距离
3.175022E-6 低风险 0.45